Location: *
(40.7190°N, 4.2480°W)
Time: 00:23:36
(UTC+00:00)

SMAP - Pass Details

Date: 18 February 2020
Orbit: 681 x 683 km, 98.1° (Epoch: 04 April)

Event Time Altitude Azimuth Distance (km) Brightness Sun altitude
Rises 06:32:47 0° 13° (NNE) 3,055 6.5 -7.3°
Reaches altitude 10° 06:35:02 10° 15° (NNE) 2,134 5.7 -6.9°
Maximum altitude 06:39:42 81° 102° (ESE) 697 3.3 -6.0°
Drops below altitude 10° 06:44:21 10° 191° (S) 2,118 5.6 -5.2°
Sets 06:46:35 0° 192° (SSW) 3,028 6.4 -4.8°
